JBU1496 MMUN-KFLL

Flight info

Callsign JBU1496
Flight time N/A
Altitude 35000
Route NUDAL1A NUDAL UV106 PODON UG765 MAXIM BHHIA3
Aircraft A320/M-SDE3FGHIRWY/LB1

Departure

Time 2026-04-27 18:21
Airport Cancún International Airport (MMUN)

Arrival

Time N/A
Airport Fort Lauderdale Hollywood International Airport (KFLL)
Time Latitude Longitude Altitude Speed Heading
2026-04-27 14:42 21.03655 -86.87071 32 ft 0 kts 32°
2026-04-27 18:12 21.03646 -86.87077 32 ft 2 kts 32°
2026-04-27 18:12 21.03634 -86.87086 32 ft 2 kts 32°
2026-04-27 18:13 21.03621 -86.87095 32 ft 2 kts 32°
2026-04-27 18:13 21.03608 -86.87103 32 ft 2 kts 32°
2026-04-27 18:13 21.03595 -86.87112 32 ft 2 kts 42°
2026-04-27 18:13 21.03588 -86.87126 31 ft 2 kts 82°
2026-04-27 18:14 21.03589 -86.87142 31 ft 1 kts 115°
2026-04-27 18:14 21.03593 -86.87148 31 ft 1 kts 128°
2026-04-27 18:14 21.03595 -86.87151 31 ft 0 kts 124°
2026-04-27 18:15 21.03587 -86.87139 31 ft 5 kts 124°
2026-04-27 18:15 21.03534 -86.87123 31 ft 12 kts 222°
2026-04-27 18:16 21.03559 -86.87227 29 ft 18 kts 300°
2026-04-27 18:16 21.03638 -86.87354 27 ft 21 kts 304°
2026-04-27 18:16 21.03721 -86.87491 24 ft 22 kts 304°
2026-04-27 18:16 21.03806 -86.87627 24 ft 21 kts 302°
2026-04-27 18:17 21.03893 -86.87762 24 ft 21 kts 305°
2026-04-27 18:17 21.03974 -86.87891 24 ft 20 kts 307°
2026-04-27 18:17 21.04050 -86.88018 25 ft 19 kts 302°
2026-04-27 18:17 21.04127 -86.88139 27 ft 18 kts 304°
2026-04-27 18:18 21.04199 -86.88251 29 ft 18 kts 304°
2026-04-27 18:18 21.04268 -86.88360 31 ft 16 kts 304°
2026-04-27 18:18 21.04332 -86.88460 33 ft 16 kts 304°
2026-04-27 18:18 21.04396 -86.88560 35 ft 18 kts 304°
2026-04-27 18:19 21.04486 -86.88705 36 ft 25 kts 303°
2026-04-27 18:19 21.04588 -86.88869 35 ft 25 kts 304°
2026-04-27 18:19 21.04624 -86.89017 36 ft 18 kts 223°
2026-04-27 18:19 21.04521 -86.89071 34 ft 14 kts 148°
2026-04-27 18:20 21.04449 -86.88972 34 ft 25 kts 124°
2026-04-27 18:20 21.04225 -86.88615 33 ft 89 kts 123°
2026-04-27 18:20 21.03768 -86.87880 25 ft 145 kts 122°
2026-04-27 18:20 21.03139 -86.86871 171 ft 176 kts 121°
2026-04-27 18:21 21.02553 -86.85723 792 ft 172 kts 117°
2026-04-27 18:21 21.02022 -86.84611 1450 ft 168 kts 117°
2026-04-27 18:21 21.01473 -86.83502 1935 ft 173 kts 117°
2026-04-27 18:21 21.00868 -86.82320 2268 ft 190 kts 118°
2026-04-27 18:22 21.00194 -86.81033 2644 ft 205 kts 118°
2026-04-27 18:22 20.99443 -86.79620 2988 ft 226 kts 118°
2026-04-27 18:22 20.98629 -86.78100 3422 ft 244 kts 119°
2026-04-27 18:22 20.97744 -86.76455 3901 ft 260 kts 119°
2026-04-27 18:23 20.96834 -86.74765 4581 ft 266 kts 118°
2026-04-27 18:23 20.96082 -86.72936 5316 ft 269 kts 99°
2026-04-27 18:23 20.96059 -86.70971 6036 ft 271 kts 79°
2026-04-27 18:23 20.96445 -86.68982 6759 ft 274 kts 76°
2026-04-27 18:24 20.96860 -86.67004 7478 ft 278 kts 76°
2026-04-27 18:24 20.97272 -86.64977 8191 ft 281 kts 76°
2026-04-27 18:24 20.97673 -86.62914 8890 ft 285 kts 76°
2026-04-27 18:24 20.98078 -86.60862 9542 ft 288 kts 74°
2026-04-27 18:25 20.98616 -86.58784 10192 ft 290 kts 69°
2026-04-27 18:25 20.99295 -86.56737 10598 ft 301 kts 66°
2026-04-27 18:25 21.00045 -86.54597 10861 ft 317 kts 66°
2026-04-27 18:25 21.00840 -86.52335 11115 ft 332 kts 66°
2026-04-27 18:26 21.01664 -86.49982 11386 ft 346 kts 66°
2026-04-27 18:26 21.02516 -86.47536 11854 ft 351 kts 66°
2026-04-27 18:26 21.03362 -86.45097 12421 ft 353 kts 66°
2026-04-27 18:26 21.04227 -86.42602 12968 ft 356 kts 66°
2026-04-27 18:27 21.05083 -86.40133 13499 ft 358 kts 66°
2026-04-27 18:27 21.05953 -86.37624 14013 ft 361 kts 66°
2026-04-27 18:27 21.06829 -86.35100 14511 ft 364 kts 66°
2026-04-27 18:27 21.07706 -86.32571 14967 ft 367 kts 66°
2026-04-27 18:28 21.08593 -86.30009 15471 ft 369 kts 66°
2026-04-27 18:28 21.09485 -86.27432 15939 ft 372 kts 66°
2026-04-27 18:28 21.10392 -86.24805 16409 ft 375 kts 66°
2026-04-27 18:28 21.11300 -86.22177 16863 ft 377 kts 66°
2026-04-27 18:29 21.12204 -86.19556 17317 ft 379 kts 66°
2026-04-27 18:29 21.13121 -86.16899 17762 ft 381 kts 66°
2026-04-27 18:29 21.14042 -86.14233 18199 ft 384 kts 66°
2026-04-27 18:29 21.14969 -86.11541 18591 ft 388 kts 66°
2026-04-27 18:30 21.15894 -86.08857 18983 ft 391 kts 66°
2026-04-27 18:30 21.16834 -86.06125 19386 ft 394 kts 66°
2026-04-27 18:30 21.17786 -86.03360 19782 ft 397 kts 66°
2026-04-27 18:30 21.18723 -86.00559 20171 ft 401 kts 68°
2026-04-27 18:31 21.19525 -85.97701 20556 ft 405 kts 71°
2026-04-27 18:31 21.20172 -85.94756 20933 ft 409 kts 75°
2026-04-27 18:31 21.20744 -85.91775 21311 ft 412 kts 75°
2026-04-27 18:31 21.21317 -85.88739 21660 ft 415 kts 75°
2026-04-27 18:32 21.21882 -85.85734 21988 ft 418 kts 75°
2026-04-27 18:32 21.22459 -85.82670 22336 ft 421 kts 75°
2026-04-27 18:32 21.23046 -85.79564 22685 ft 424 kts 75°
2026-04-27 18:32 21.23627 -85.76482 23026 ft 427 kts 75°
2026-04-27 18:33 21.24215 -85.73370 23365 ft 430 kts 75°
2026-04-27 18:33 21.24813 -85.70197 23712 ft 432 kts 75°
2026-04-27 18:33 21.25407 -85.67056 24053 ft 435 kts 75°
2026-04-27 18:33 21.26234 -85.63962 24349 ft 433 kts 64°
2026-04-27 18:34 21.27674 -85.61158 24676 ft 429 kts 51°
2026-04-27 18:34 21.29627 -85.58777 25002 ft 426 kts 40°
2026-04-27 18:34 21.31829 -85.56615 25339 ft 428 kts 38°
2026-04-27 18:34 21.34057 -85.54475 25655 ft 430 kts 38°
2026-04-27 18:35 21.36298 -85.52324 25973 ft 433 kts 38°
2026-04-27 18:35 21.38525 -85.50175 26280 ft 435 kts 38°
2026-04-27 18:35 21.40782 -85.47987 26590 ft 437 kts 38°
2026-04-27 18:35 21.42980 -85.45850 26883 ft 439 kts 38°
2026-04-27 18:36 21.45265 -85.43623 27177 ft 442 kts 38°
2026-04-27 18:36 21.47527 -85.41415 27466 ft 444 kts 38°
2026-04-27 18:36 21.49842 -85.39156 27745 ft 446 kts 38°
2026-04-27 18:36 21.52147 -85.36903 28019 ft 448 kts 38°
2026-04-27 18:37 21.54452 -85.34649 28297 ft 450 kts 39°
2026-04-27 18:37 21.56777 -85.32374 28557 ft 452 kts 39°
2026-04-27 18:37 21.59135 -85.30064 28802 ft 454 kts 39°
2026-04-27 18:37 21.61470 -85.27776 29057 ft 455 kts 39°
2026-04-27 18:38 21.63818 -85.25474 29374 ft 455 kts 39°
2026-04-27 18:38 21.66155 -85.23181 29674 ft 454 kts 39°
2026-04-27 18:38 21.68507 -85.20875 29950 ft 454 kts 39°
2026-04-27 18:38 21.70823 -85.18603 30215 ft 454 kts 39°
2026-04-27 18:39 21.73175 -85.16295 30473 ft 455 kts 39°
2026-04-27 18:39 21.75520 -85.13992 30734 ft 455 kts 39°
2026-04-27 18:39 21.77844 -85.11706 30991 ft 455 kts 39°
2026-04-27 18:39 21.80209 -85.09380 31239 ft 455 kts 39°
2026-04-27 18:40 21.82539 -85.07088 31468 ft 456 kts 39°
2026-04-27 18:40 21.84867 -85.04797 31707 ft 456 kts 39°
2026-04-27 18:40 21.87241 -85.02458 31948 ft 457 kts 39°
2026-04-27 18:40 21.89563 -85.00169 32188 ft 457 kts 39°
2026-04-27 18:41 21.91926 -84.97842 32433 ft 457 kts 39°
2026-04-27 18:41 21.94254 -84.95545 32669 ft 457 kts 39°
2026-04-27 18:41 21.96601 -84.93229 32902 ft 457 kts 39°
2026-04-27 18:41 21.98949 -84.90911 33150 ft 457 kts 39°
2026-04-27 18:42 22.01302 -84.88586 33396 ft 457 kts 39°
2026-04-27 18:42 22.02874 -84.87033 33550 ft 457 kts 39°
2026-04-27 18:42 22.06032 -84.83910 33840 ft 458 kts 39°
2026-04-27 18:42 22.08394 -84.81575 34044 ft 459 kts 39°
2026-04-27 18:43 22.10769 -84.79225 34244 ft 459 kts 39°
2026-04-27 18:43 22.13132 -84.76886 34444 ft 460 kts 39°
2026-04-27 18:43 22.15517 -84.74525 34638 ft 460 kts 39°
2026-04-27 18:43 22.17887 -84.72175 34824 ft 461 kts 39°
2026-04-27 18:44 22.20241 -84.69841 34983 ft 462 kts 39°
2026-04-27 18:44 22.22634 -84.67467 34994 ft 463 kts 39°
2026-04-27 18:44 22.27379 -84.62759 35000 ft 463 kts 39°
2026-04-27 18:45 22.32144 -84.58026 35002 ft 463 kts 39°
2026-04-27 18:45 22.36894 -84.53301 35003 ft 463 kts 39°
2026-04-27 18:46 22.41648 -84.48566 35003 ft 463 kts 39°
2026-04-27 18:46 22.46382 -84.43848 35003 ft 462 kts 38°
2026-04-27 18:47 22.51131 -84.39111 35003 ft 463 kts 38°
2026-04-27 18:47 22.55884 -84.34363 35002 ft 463 kts 39°
2026-04-27 18:48 22.60625 -84.29622 35003 ft 463 kts 39°
2026-04-27 18:48 22.65241 -84.24665 35004 ft 466 kts 44°
2026-04-27 18:49 22.69528 -84.19374 35004 ft 466 kts 45°
2026-04-27 18:49 22.73822 -84.14054 35004 ft 466 kts 44°
2026-04-27 18:50 22.78094 -84.08800 35003 ft 465 kts 44°
2026-04-27 18:50 22.82407 -84.03507 35003 ft 466 kts 44°
2026-04-27 18:51 22.86704 -83.98235 35004 ft 466 kts 44°
2026-04-27 18:51 22.91024 -83.92928 35004 ft 466 kts 44°
2026-04-27 18:52 22.95341 -83.87621 35004 ft 466 kts 44°
2026-04-27 18:53 23.01817 -83.79654 35007 ft 466 kts 44°
2026-04-27 18:53 23.06115 -83.74358 35006 ft 466 kts 44°
2026-04-27 18:54 23.10378 -83.69099 35009 ft 466 kts 44°
2026-04-27 18:54 23.14673 -83.63794 35010 ft 466 kts 44°
2026-04-27 18:55 23.18957 -83.58497 35008 ft 466 kts 44°
2026-04-27 18:55 23.23230 -83.53210 35009 ft 466 kts 44°
2026-04-27 18:56 23.27497 -83.47927 35008 ft 466 kts 44°
2026-04-27 18:56 23.31771 -83.42625 35007 ft 466 kts 43°
2026-04-27 18:57 23.36040 -83.37326 35010 ft 467 kts 43°
2026-04-27 18:57 23.40327 -83.31998 35013 ft 466 kts 44°
2026-04-27 18:58 23.44619 -83.26659 35013 ft 466 kts 44°
2026-04-27 18:58 23.48891 -83.21339 35013 ft 466 kts 44°
2026-04-27 18:59 23.53210 -83.15954 35015 ft 467 kts 43°
2026-04-27 18:59 23.57484 -83.10622 35017 ft 467 kts 43°
2026-04-27 19:00 23.61768 -83.05269 35015 ft 466 kts 43°
2026-04-27 19:00 23.63175 -83.03510 35017 ft 467 kts 43°